TimePDT,TemperatureF,Dew PointF,Humidity,Sea Level PressureIn,VisibilityMPH,Wind Direction,Wind SpeedMPH,Gust SpeedMPH,PrecipitationIn,Events,Conditions,WindDirDegrees,DateUTC
12:53 AM,51.1,28.9,43,30.17,10.0,North,5.8,-,N/A,,Clear,360,2012-10-04 07:53:00
1:53 AM,48.0,28.9,48,30.17,10.0,NNW,6.9,-,N/A,,Clear,340,2012-10-04 08:53:00
2:53 AM,48.0,30.0,50,30.17,10.0,NNW,9.2,-,N/A,,Clear,340,2012-10-04 09:53:00
3:53 AM,39.9,30.0,68,30.16,10.0,NNW,4.6,-,N/A,,Clear,340,2012-10-04 10:53:00
4:53 AM,45.0,30.9,58,30.16,10.0,WNW,5.8,-,N/A,,Clear,290,2012-10-04 11:53:00
5:53 AM,42.1,30.0,62,30.16,10.0,West,3.5,-,N/A,,Clear,280,2012-10-04 12:53:00
6:53 AM,42.1,30.9,65,30.17,10.0,WNW,6.9,-,N/A,,Clear,300,2012-10-04 13:53:00
7:53 AM,46.0,32.0,58,30.17,10.0,WNW,6.9,-,N/A,,Clear,290,2012-10-04 14:53:00
8:53 AM,52.0,34.0,50,30.18,10.0,WNW,4.6,-,N/A,,Clear,300,2012-10-04 15:53:00
9:53 AM,62.1,30.9,31,30.18,10.0,NNE,8.1,-,N/A,,Clear,20,2012-10-04 16:53:00
10:53 AM,64.9,30.0,27,30.19,10.0,North,11.5,-,N/A,,Clear,360,2012-10-04 17:53:00
11:53 AM,66.9,30.0,25,30.17,10.0,NNE,12.7,18.4,N/A,,Clear,30,2012-10-04 18:53:00
12:53 PM,70.0,28.0,21,30.16,10.0,ENE,17.3,21.9,N/A,,Clear,60,2012-10-04 19:53:00
1:53 PM,72.0,25.0,17,30.15,10.0,ENE,17.3,21.9,N/A,,Clear,70,2012-10-04 20:53:00
2:53 PM,72.0,25.0,17,30.14,10.0,ENE,17.3,-,N/A,,Clear,70,2012-10-04 21:53:00
3:53 PM,72.0,21.9,15,30.15,-9999.0,NE,12.7,-,N/A,,Clear,50,2012-10-04 22:53:00
4:53 PM,71.1,21.0,15,30.15,-9999.0,ENE,12.7,-,N/A,,Clear,70,2012-10-04 23:53:00
5:53 PM,68.0,21.0,17,30.15,-9999.0,ENE,16.1,23.0,N/A,,Clear,70,2012-10-05 00:53:00
6:53 PM,63.0,23.0,22,30.16,-9999.0,NE,6.9,-,N/A,,Clear,40,2012-10-05 01:53:00
7:53 PM,62.1,24.1,23,30.16,-9999.0,NNE,6.9,-,N/A,,Clear,30,2012-10-05 02:53:00
8:53 PM,59.0,25.0,27,30.17,-9999.0,NNE,9.2,-,N/A,,Clear,30,2012-10-05 03:53:00
9:53 PM,59.0,25.0,27,30.17,-9999.0,NNE,8.1,-,N/A,,Clear,30,2012-10-05 04:53:00
10:53 PM,57.0,25.0,29,30.18,-9999.0,NNE,5.8,-,N/A,,Clear,20,2012-10-05 05:53:00
11:53 PM,57.9,23.0,26,30.19,-9999.0,NE,4.6,-,N/A,,Clear,40,2012-10-05 06:53:00